Regional Weather Roundup
Issued by NWS Albany, NY

Home | Current Version | Previous Version | Text Only | Print | Product List | Glossary On
Versions: 1 2 3 4 5 6 7 8 9 10 11 12 13 14 15 16 17 18 19 20 21 22 23 24 25 26 27 28 29 30 31 32 33 34 35 36 37 38 39 40 41 42 43 44 45 46 47 48 49 50
000
ASUS41 KALY 081010
RWRALY

NEW YORK STATE HOURLY WEATHER ROUNDUP
NATIONAL WEATHER SERVICE ALBANY NY
500 AM EST THU DEC 08 2016

NOTE: "FAIR" INDICATES FEW OR NO CLOUDS BELOW 12,000 FEET WITH NO
SIGNIFICANT WEATHER AND/OR NO OBSTRUCTIONS TO VISIBILITY.

NYZ032-033-038>043-046>054-057>066-NYZ062>081-082-084-081100-
EAST


CITY           SKY/WX    TMP DP  RH WIND       PRES   REMARKS
ALBANY         FOG       34  33  96 S3        29.95S VSB 1/4
GLENS FALLS    FOG       27  23  85 CALM      29.92F VSB 3/4
POUGHKEEPSIE   PTCLDY    29  28  96 CALM      29.95F
NEWBURGH       MOCLDY    34  32  93 W5        29.96F WCI  30
MONTGOMERY     PTCLDY    31  29  92 SW7       29.94F WCI  24
WHITE PLAINS   CLOUDY    35  31  85 NW5       29.95F WCI  31
ISLIP          CLOUDY    31  30  96 CALM      29.97F
NEW YORK CITY  CLOUDY    44  29  55 W6        29.97F
CENTRAL PARK   CLOUDY    41  29  62 VRB5      29.99F
$$

NYZ005>009-017-018-044>046-055-056-081100-
CENTRAL


CITY           SKY/WX    TMP DP  RH WIND       PRES   REMARKS
FULTON         CLOUDY    35  27  72 S8        29.91F WCI  29
SYRACUSE       FLURRIES  34  29  82 SW10      29.91F WCI  26
ROME           CLOUDY    30  29  96 NW6       29.93S WCI  24
ELMIRA         MOCLDY    33  22  63 SW10      29.93F WCI  25
BINGHAMTON     CLOUDY    30  22  72 SW7       29.90F WCI  23
MONTICELLO     CLEAR     30  28  93 W6        29.94R WCI  24
$$

NYZ026>034-041>043-087-081100-
NORTH


CITY           SKY/WX    TMP DP  RH WIND       PRES   REMARKS
WATERTOWN      HVY SNOW  32  32 100 W15G23    29.87S VSB 1/4 WCI  22
FORT DRUM      NOT AVBL
OGDENSBURG     FAIR      32  29  88 SW6       29.84F WCI  27
MASSENA        CLOUDY    33  27  78 SW9       29.84F WCI  25
SARANAC LAKE   LGT SNOW  30  26  85 MISG      29.78F FOG
PLATTSBURGH    CLOUDY    32  29  88 W3        29.85F
$$

NYZ001>004-010>016-019>021-085-081100-
WEST


CITY           SKY/WX    TMP DP  RH WIND       PRES   REMARKS
NIAGARA FALLS  CLOUDY    33  21  61 W14       29.91F WCI  23
BUFFALO        CLOUDY    31  22  69 W13       29.91S WCI  21
DUNKIRK        CLOUDY    35  25  66 SW14G26   29.93S WCI  26
JAMESTOWN      CLOUDY    28  21  74 SW17      29.90F WCI  16
WELLSVILLE     CLEAR     28  20  71 MISG      29.88F
ROCHESTER      FLURRIES  35  29  78 W9        29.91F WCI  28
PENN YAN       PTCLDY    34  21  59 SW13      29.90F WCI  25
$$

             KEY
       WCI = WIND CHILL INDEX
       VSB = VISIBILITY
       HX  = HEAT INDEX
$$



USA.gov is the U.S. government's official web portal to all federal, state and local government web resources and services.